^^
Saratoga-Weather Station Historical Data
Daily Summary for February 21, 2021 Units:  English    Metric   Both
Daily Weekly Monthly Yearly Custom
  High: Low: Average:
Temperature: 63.1 °F 50.2 °F 56.7 °F
Dew Point: 48 °F 42.6 °F 45.5 °F
Humidity: 90% 48% 67%
Wind Speed: 17mph 0mph 3.6mph
Wind Gust: 19mph - -
Wind- - WSW
Pressure: 29.9 in 29.6 in -
Precipitation: 0.11 in    
Historical Graphs
 
 
Tabular Data for February 21, 2021
Time Temperature Dew Point Pressure Wind Wind Speed Wind Gust Humidity Rainfall Rate (Hourly) solar
00:02 56.5 °F 45.3 °F 29.9 in NNE 0.9 mph 2 mph 66% 0 in 0 W/m2
00:07 56.5 °F 45.3 °F 29.9 in NNE 2 mph 4 mph 66% 0 in 0 W/m2
00:12 56.3 °F 45.5 °F 29.9 in NE 0.9 mph 5 mph 67% 0 in 0 W/m2
00:17 56.1 °F 45.3 °F 29.9 in NNE 2 mph 4 mph 67% 0 in 0 W/m2
00:22 55.9 °F 45.1 °F 29.9 in NNE 0.9 mph 4 mph 67% 0 in 0 W/m2
00:27 55.9 °F 45.1 °F 29.9 in NNW 2.9 mph 3 mph 67% 0 in 0 W/m2
00:32 55.8 °F 45 °F 29.9 in SSW 0.9 mph 4 mph 67% 0 in 0 W/m2
00:37 55.8 °F 44.6 °F 29.9 in Calm   5 mph 66% 0 in 0 W/m2
00:42 55.8 °F 45 °F 29.9 in WNW 0.9 mph 3 mph 67% 0 in 0 W/m2
00:47 55.8 °F 44.6 °F 29.9 in NW 0.9 mph 5 mph 66% 0 in 0 W/m2
00:52 55.8 °F 44.6 °F 29.9 in East 0.9 mph 4 mph 66% 0 in 0 W/m2
00:57 55.8 °F 44.6 °F 29.9 in SW 0.9 mph 5 mph 66% 0 in 0 W/m2
01:02 55.8 °F 44.6 °F 29.9 in North 6 mph 6 mph 66% 0 in 0 W/m2
01:07 55.8 °F 44.6 °F 29.9 in NE 0.9 mph 3 mph 66% 0 in 0 W/m2
01:12 55.8 °F 44.6 °F 29.9 in North 0.9 mph 5 mph 66% 0 in 0 W/m2
01:17 55.8 °F 44.2 °F 29.9 in North 2.9 mph 8 mph 65% 0 in 0 W/m2
01:22 55.8 °F 44.6 °F 29.9 in North 4 mph 5 mph 66% 0 in 0 W/m2
01:27 55.8 °F 44.6 °F 29.9 in NNW 2 mph 4 mph 66% 0 in 0 W/m2
01:32 55.6 °F 44.4 °F 29.9 in NW 0.9 mph 4 mph 66% 0 in 0 W/m2
01:37 55.2 °F 44.1 °F 29.9 in NW 0.9 mph 3 mph 66% 0 in 0 W/m2
01:42 55.2 °F 44.1 °F 29.9 in Calm   4 mph 66% 0 in 0 W/m2
01:47 55 °F 44.2 °F 29.9 in NNE 0.9 mph 4 mph 67% 0 in 0 W/m2
01:52 55 °F 44.2 °F 29.9 in NE 2.9 mph 4 mph 67% 0 in 0 W/m2
01:57 54.9 °F 44.1 °F 29.9 in Calm   3 mph 67% 0 in 0 W/m2
02:02 54.9 °F 44.1 °F 29.9 in West 0.9 mph 5 mph 67% 0 in 0 W/m2
02:07 54.7 °F 44.2 °F 29.9 in NW 2 mph 5 mph 68% 0 in 0 W/m2
02:12 54.7 °F 44.2 °F 29.9 in NNE 2 mph 9 mph 68% 0 in 0 W/m2
02:17 54.5 °F 44.2 °F 29.9 in NW 0.9 mph 7 mph 68% 0 in 0 W/m2
02:22 54.5 °F 44.2 °F 29.9 in NNW 0.9 mph 3 mph 68% 0 in 0 W/m2
02:27 54.3 °F 44.1 °F 29.9 in NNW 0.9 mph 7 mph 68% 0 in 0 W/m2
02:32 54.3 °F 44.1 °F 29.9 in SSW 0.9 mph 4 mph 68% 0 in 0 W/m2
02:37 54.1 °F 44.2 °F 29.9 in WNW 2.9 mph 4 mph 69% 0 in 0 W/m2
02:42 54.1 °F 44.2 °F 29.9 in North 0.9 mph 2 mph 69% 0 in 0 W/m2
02:47 54 °F 44.1 °F 29.9 in Calm   4 mph 69% 0 in 0 W/m2
02:52 53.8 °F 44.2 °F 29.9 in NNW 0.9 mph 2 mph 70% 0 in 0 W/m2
02:57 53.6 °F 44.1 °F 29.9 in NNE 0.9 mph 2 mph 70% 0 in 0 W/m2
03:02 53.4 °F 44.2 °F 29.9 in ENE 4 mph 5 mph 71% 0 in 0 W/m2
03:07 53.4 °F 44.6 °F 29.8 in NE 4 mph 4 mph 72% 0 in 0 W/m2
03:12 53.4 °F 44.2 °F 29.8 in NNE 2.9 mph 3 mph 71% 0 in 0 W/m2
03:17 53.2 °F 44.1 °F 29.8 in NNE 0.9 mph 3 mph 71% 0 in 0 W/m2
03:22 53.2 °F 44.4 °F 29.8 in Calm   2 mph 72% 0 in 0 W/m2
03:27 52.9 °F 44.1 °F 29.8 in NE 2 mph 3 mph 72% 0 in 0 W/m2
03:32 52.9 °F 44.1 °F 29.8 in East 0.9 mph 2 mph 72% 0 in 0 W/m2
03:37 52.9 °F 44.4 °F 29.8 in NE 0.9 mph 2 mph 73% 0 in 0 W/m2
03:42 52.9 °F 44.4 °F 29.8 in ENE 4 mph 4 mph 73% 0 in 0 W/m2
03:47 52.9 °F 44.4 °F 29.8 in NE 2.9 mph 3 mph 73% 0 in 0 W/m2
03:52 53.1 °F 44.6 °F 29.8 in ESE 0.9 mph 2 mph 73% 0 in 0 W/m2
03:57 53.1 °F 44.2 °F 29.8 in SE 0.9 mph 2 mph 72% 0 in 0 W/m2
04:02 53.1 °F 44.2 °F 29.8 in ENE 2 mph 3 mph 72% 0 in 0 W/m2
04:07 53.2 °F 44.4 °F 29.8 in NNE 2 mph 5 mph 72% 0 in 0 W/m2
04:12 53.2 °F 44.4 °F 29.8 in North 2 mph 2 mph 72% 0 in 0 W/m2
04:17 53.2 °F 44.4 °F 29.8 in East 2 mph 3 mph 72% 0 in 0 W/m2
04:22 53.2 °F 44.4 °F 29.8 in NE 4 mph 4 mph 72% 0 in 0 W/m2
04:27 53.1 °F 44.6 °F 29.8 in East 0.9 mph 3 mph 73% 0 in 0 W/m2
04:32 53.1 °F 44.6 °F 29.8 in East 2 mph 4 mph 73% 0 in 0 W/m2
04:37 52.9 °F 44.8 °F 29.8 in Calm   1 mph 74% 0 in 0 W/m2
04:42 52.9 °F 45.1 °F 29.8 in Calm   4 mph 75% 0 in 0 W/m2
04:47 52.5 °F 44.4 °F 29.8 in Calm   2 mph 74% 0 in 0 W/m2
04:52 52.3 °F 44.6 °F 29.8 in Calm   1 mph 75% 0 in 0 W/m2
04:57 52.2 °F 44.4 °F 29.8 in NNW 0.9 mph 2 mph 75% 0 in 0 W/m2
05:03 52.3 °F 44.2 °F 29.8 in NNW 2 mph 4 mph 74% 0 in 0 W/m2
05:08 52.9 °F 44.4 °F 29.8 in NNE 2.9 mph 3 mph 73% 0 in 0 W/m2
05:13 53.1 °F 44.6 °F 29.8 in WNW 0.9 mph 5 mph 73% 0 in 0 W/m2
05:18 53.2 °F 44.4 °F 29.8 in South 0.9 mph 7 mph 72% 0 in 0 W/m2
05:23 53.1 °F 44.6 °F 29.8 in North 2 mph 5 mph 73% 0 in 0 W/m2
05:28 53.1 °F 44.6 °F 29.8 in NNW 0.9 mph 7 mph 73% 0 in 0 W/m2
05:33 53.1 °F 44.6 °F 29.8 in East 0.9 mph 3 mph 73% 0 in 0 W/m2
05:38 53.1 °F 44.2 °F 29.8 in Calm   5 mph 72% 0 in 0 W/m2
05:43 53.2 °F 44.4 °F 29.8 in WSW 6 mph 6 mph 72% 0 in 0 W/m2
05:48 53.2 °F 44.4 °F 29.8 in WSW 2.9 mph 4 mph 72% 0 in 0 W/m2
05:53 53.2 °F 44.4 °F 29.8 in NW 2.9 mph 6 mph 72% 0 in 0 W/m2
05:58 53.2 °F 44.4 °F 29.8 in North 0.9 mph 3 mph 72% 0 in 5 W/m2
06:03 53.2 °F 44.4 °F 29.8 in NE 0.9 mph 2 mph 72% 0 in 12 W/m2
06:08 53.2 °F 44.4 °F 29.8 in Calm   5 mph 72% 0 in 16 W/m2
06:13 53.2 °F 44.4 °F 29.8 in NNW 0.9 mph 2 mph 72% 0 in 16 W/m2
06:18 53.2 °F 44.4 °F 29.8 in Calm   9 mph 72% 0 in 18 W/m2
06:23 53.4 °F 44.6 °F 29.8 in WSW 0.9 mph 2 mph 72% 0 in 21 W/m2
06:28 53.4 °F 44.2 °F 29.8 in Calm   4 mph 71% 0 in 23 W/m2
06:33 53.6 °F 44.4 °F 29.8 in WNW 0.9 mph 3 mph 71% 0 in 16 W/m2
06:38 53.8 °F 45 °F 29.8 in Calm   5 mph 72% 0 in 23 W/m2
06:43 54 °F 44.8 °F 29.8 in NW 0.9 mph 4 mph 71% 0 in 21 W/m2
06:48 54 °F 44.8 °F 29.8 in NNW 4.9 mph 5 mph 71% 0 in 32 W/m2
06:53 54.1 °F 45 °F 29.8 in NNW 4.9 mph 6 mph 71% 0 in 35 W/m2
06:58 54.1 °F 45 °F 29.8 in NW 4 mph 5 mph 71% 0 in 49 W/m2
07:03 54.1 °F 45 °F 29.8 in WSW 2.9 mph 8 mph 71% 0 in 51 W/m2
07:08 54.1 °F 45.3 °F 29.8 in North 4 mph 7 mph 72% 0 in 62 W/m2
07:13 54.1 °F 45.7 °F 29.8 in West 4 mph 4 mph 73% 0 in 60 W/m2
07:18 54.1 °F 45.7 °F 29.8 in NW 2.9 mph 5 mph 73% 0 in 77 W/m2
07:23 54.1 °F 45.7 °F 29.8 in WNW 2 mph 5 mph 73% 0 in 84 W/m2
07:28 54.3 °F 46.2 °F 29.8 in West 4 mph 8 mph 74% 0 in 67 W/m2
07:33 54.3 °F 46.2 °F 29.8 in NNE 2 mph 5 mph 74% 0 in 97 W/m2
07:38 54.5 °F 46.8 °F 29.8 in NNW 2 mph 8 mph 75% 0 in 74 W/m2
07:43 54.5 °F 47.1 °F 29.8 in West 2 mph 7 mph 76% 0 in 109 W/m2
07:48 54.5 °F 47.5 °F 29.8 in West 2 mph 8 mph 77% 0 in 114 W/m2
07:53 54.5 °F 47.1 °F 29.8 in West 2 mph 6 mph 76% 0 in 111 W/m2
07:58 54.7 °F 47.3 °F 29.8 in SE 0.9 mph 9 mph 76% 0 in 114 W/m2
08:03 54.7 °F 47.3 °F 29.8 in NNW 8.1 mph 8 mph 76% 0 in 107 W/m2
08:08 54.5 °F 46.8 °F 29.8 in NNW 4 mph 9 mph 75% 0 in 113 W/m2
08:13 54.3 °F 46.6 °F 29.8 in North 4.9 mph 8 mph 75% 0 in 120 W/m2
08:18 54.3 °F 46.2 °F 29.8 in West 2 mph 12 mph 74% 0 in 123 W/m2
08:23 54.3 °F 46.2 °F 29.8 in NW 2 mph 9 mph 74% 0 in 114 W/m2
08:28 54.3 °F 46.2 °F 29.8 in WNW 15 mph 15 mph 74% 0 in 113 W/m2
08:33 54.1 °F 46 °F 29.8 in WNW 6.9 mph 17 mph 74% 0 in 139 W/m2
08:38 54.1 °F 46 °F 29.8 in NNW 4 mph 12 mph 74% 0 in 142 W/m2
08:43 54.1 °F 46 °F 29.8 in NW 6 mph 17 mph 74% 0 in 128 W/m2
08:48 54.1 °F 46.4 °F 29.8 in WNW 6.9 mph 9 mph 75% 0 in 134 W/m2
08:53 54.1 °F 46.4 °F 29.8 in WNW 0.9 mph 15 mph 75% 0 in 118 W/m2
08:58 54.1 °F 46.4 °F 29.8 in NW 4 mph 9 mph 75% 0 in 151 W/m2
09:03 54.1 °F 46.8 °F 29.8 in WNW 2 mph 5 mph 76% 0 in 120 W/m2
09:08 54.1 °F 46.8 °F 29.8 in West 4 mph 9 mph 76% 0 in 153 W/m2
09:13 54.1 °F 46.8 °F 29.8 in WNW 2 mph 7 mph 76% 0 in 142 W/m2
09:18 54.3 °F 46.9 °F 29.8 in East 0.9 mph 4 mph 76% 0 in 174 W/m2
09:23 54.5 °F 47.1 °F 29.8 in SW 4.9 mph 11 mph 76% 0 in 202 W/m2
09:28 54.7 °F 47.3 °F 29.8 in WNW 4.9 mph 7 mph 76% 0 in 230 W/m2
09:33 54.9 °F 47.1 °F 29.8 in North 4.9 mph 8 mph 75% 0 in 299 W/m2
09:38 55 °F 47.3 °F 29.8 in NW 0.9 mph 11 mph 75% 0 in 200 W/m2
09:43 55.2 °F 47.5 °F 29.8 in NW 2 mph 7 mph 75% 0 in 287 W/m2
09:48 55.4 °F 47.3 °F 29.8 in SW 4 mph 12 mph 74% 0 in 271 W/m2
09:53 55.4 °F 47.3 °F 29.8 in WSW 4 mph 9 mph 74% 0 in 223 W/m2
09:58 55.4 °F 47.3 °F 29.8 in NW 2 mph 11 mph 74% 0 in 213 W/m2
10:03 55.4 °F 47.3 °F 29.8 in WSW 4 mph 10 mph 74% 0 in 258 W/m2
10:08 55.6 °F 47.5 °F 29.8 in WSW 2.9 mph 11 mph 74% 0 in 427 W/m2
10:13 55.8 °F 47.3 °F 29.8 in North 2.9 mph 8 mph 73% 0 in 348 W/m2
10:18 56.1 °F 46.8 °F 29.8 in SSW 6.9 mph 14 mph 71% 0 in 301 W/m2
10:23 56.1 °F 45.7 °F 29.8 in NNW 4 mph 12 mph 68% 0 in 431 W/m2
10:28 56.1 °F 45.3 °F 29.8 in West 12.1 mph 17 mph 67% 0 in 253 W/m2
10:33 55.9 °F 45.1 °F 29.8 in NNW 6 mph 14 mph 67% 0 in 257 W/m2
10:38 56.1 °F 45.3 °F 29.8 in NW 4 mph 9 mph 67% 0 in 334 W/m2
10:43 56.5 °F 45.7 °F 29.8 in WNW 11 mph 12 mph 67% 0 in 396 W/m2
10:48 57 °F 45.9 °F 29.8 in SW 6 mph 18 mph 66% 0 in 584 W/m2
10:53 57 °F 45 °F 29.8 in SW 6 mph 14 mph 64% 0 in 624 W/m2
10:58 57.4 °F 45.7 °F 29.8 in WNW 6 mph 18 mph 65% 0 in 424 W/m2
11:03 57.2 °F 45.5 °F 29.8 in NNW 4.9 mph 10 mph 65% 0 in 385 W/m2
11:08 57 °F 45.9 °F 29.8 in West 6 mph 11 mph 66% 0 in 387 W/m2
11:13 57.4 °F 46 °F 29.8 in North 8.1 mph 12 mph 66% 0 in 476 W/m2
11:18 57.4 °F 46 °F 29.8 in WSW 4.9 mph 17 mph 66% 0 in 381 W/m2
11:23 57 °F 45.9 °F 29.8 in WNW 8.9 mph 12 mph 66% 0 in 526 W/m2
11:28 57.4 °F 46 °F 29.8 in NW 10.1 mph 14 mph 66% 0 in 650 W/m2
11:33 57.6 °F 46.2 °F 29.8 in West 6.9 mph 17 mph 66% 0 in 422 W/m2
11:38 57.7 °F 46.4 °F 29.8 in WNW 10.1 mph 14 mph 66% 0 in 856 W/m2
11:43 57.9 °F 46.6 °F 29.8 in NW 14.1 mph 19 mph 66% 0 in 461 W/m2
11:48 57.6 °F 46.2 °F 29.8 in NW 10.1 mph 10 mph 66% 0 in 359 W/m2
11:53 57.6 °F 46.2 °F 29.8 in NNW 4.9 mph 11 mph 66% 0 in 380 W/m2
11:58 57.6 °F 46.8 °F 29.8 in WSW 4 mph 11 mph 67% 0 in 360 W/m2
12:03 57.4 °F 46.6 °F 29.8 in WNW 4 mph 10 mph 67% 0 in 352 W/m2
12:08 57.4 °F 46.9 °F 29.8 in WNW 8.1 mph 10 mph 68% 0 in 417 W/m2
12:13 57.2 °F 46.8 °F 29.8 in WNW 6.9 mph 10 mph 68% 0 in 394 W/m2
12:18 57.4 °F 46.9 °F 29.8 in WSW 8.1 mph 12 mph 68% 0 in 352 W/m2
12:23 57.4 °F 46.9 °F 29.8 in NW 4 mph 14 mph 68% 0 in 436 W/m2
12:28 57.4 °F 46.6 °F 29.8 in NW 4.9 mph 7 mph 67% 0 in 209 W/m2
12:33 57.6 °F 46.8 °F 29.8 in WSW 8.9 mph 11 mph 67% 0 in 373 W/m2
12:38 57.6 °F 46.8 °F 29.8 in NNW 4.9 mph 14 mph 67% 0 in 360 W/m2
12:43 57.7 °F 45.3 °F 29.8 in SSE 11 mph 17 mph 63% 0 in 445 W/m2
12:48 57.7 °F 45.3 °F 29.8 in SSW 4 mph 9 mph 63% 0 in 476 W/m2
12:53 57.9 °F 44.6 °F 29.8 in SSE 4.9 mph 16 mph 61% 0 in 394 W/m2
12:58 58.1 °F 44.8 °F 29.8 in West 6 mph 13 mph 61% 0 in 499 W/m2
13:03 58.3 °F 45.3 °F 29.8 in South 10.1 mph 16 mph 62% 0 in 452 W/m2
13:08 58.3 °F 45.3 °F 29.8 in WNW 17 mph 17 mph 62% 0 in 394 W/m2
13:13 58.3 °F 45.3 °F 29.8 in West 10.1 mph 12 mph 62% 0 in 364 W/m2
13:19 58.5 °F 45.1 °F 29.8 in East 6.9 mph 11 mph 61% 0 in 364 W/m2
13:24 58.6 °F 44.8 °F 29.8 in NW 6.9 mph 10 mph 60% 0 in 1208 W/m2
13:29 58.6 °F 43.9 °F 29.8 in NNW 2 mph 12 mph 58% 0 in 657 W/m2
13:34 59 °F 44.2 °F 29.8 in NW 4.9 mph 7 mph 58% 0 in 450 W/m2
13:39 58.8 °F 44.1 °F 29.8 in West 8.1 mph 16 mph 58% 0 in 457 W/m2
13:44 58.8 °F 44.1 °F 29.8 in North 2.9 mph 9 mph 58% 0 in 432 W/m2
13:49 59 °F 45.1 °F 29.8 in North 0.9 mph 9 mph 60% 0 in 452 W/m2
13:54 59 °F 44.8 °F 29.8 in WNW 8.9 mph 14 mph 59% 0 in 329 W/m2
13:59 58.6 °F 44.8 °F 29.8 in West 4 mph 16 mph 60% 0 in 301 W/m2
14:04 58.3 °F 45.3 °F 29.8 in NW 8.9 mph 14 mph 62% 0 in 325 W/m2
14:09 58.3 °F 45.7 °F 29.8 in WNW 4 mph 5 mph 63% 0 in 1106 W/m2
14:14 59.2 °F 46.2 °F 29.8 in East 0.9 mph 14 mph 62% 0 in 1076 W/m2
14:19 59.4 °F 45.9 °F 29.8 in North 10.1 mph 10 mph 61% 0 in 485 W/m2
14:24 59.4 °F 45.9 °F 29.8 in SSW 6 mph 10 mph 61% 0 in 432 W/m2
14:29 59.4 °F 45 °F 29.8 in North 8.1 mph 11 mph 59% 0 in 993 W/m2
14:34 59.7 °F 45 °F 29.8 in WNW 4 mph 10 mph 58% 0 in 991 W/m2
14:39 60.1 °F 44.4 °F 29.8 in WNW 4.9 mph 9 mph 56% 0 in 865 W/m2
14:44 60.1 °F 44.8 °F 29.8 in WNW 12.1 mph 15 mph 57% 0 in 557 W/m2
14:49 60.3 °F 44.4 °F 29.8 in West 2 mph 15 mph 56% 0 in 1076 W/m2
14:54 60.6 °F 44.4 °F 29.8 in NW 4.9 mph 14 mph 55% 0 in 1106 W/m2
14:59 61.2 °F 45.9 °F 29.8 in North 4 mph 9 mph 57% 0 in 1039 W/m2
15:04 61.2 °F 45.3 °F 29.8 in WNW 14.1 mph 14 mph 56% 0 in 914 W/m2
15:09 61 °F 46 °F 29.8 in NW 8.1 mph 10 mph 58% 0 in 970 W/m2
15:14 61.3 °F 46 °F 29.8 in West 10.1 mph 10 mph 57% 0 in 1002 W/m2
15:19 61.3 °F 45 °F 29.8 in WSW 4.9 mph 15 mph 55% 0 in 946 W/m2
15:24 61.2 °F 45.3 °F 29.8 in NW 4.9 mph 5 mph 56% 0 in 195 W/m2
15:29 61.2 °F 46.2 °F 29.8 in NW 0.9 mph 12 mph 58% 0 in 932 W/m2
15:34 61.5 °F 46.2 °F 29.8 in West 4 mph 15 mph 57% 0 in 257 W/m2
15:39 61 °F 45.1 °F 29.8 in East 6 mph 12 mph 56% 0 in 253 W/m2
15:44 60.3 °F 45 °F 29.7 in NE 2 mph 7 mph 57% 0 in 336 W/m2
15:49 60.4 °F 45.1 °F 29.8 in West 8.9 mph 10 mph 57% 0 in 320 W/m2
15:54 60.4 °F 44.2 °F 29.8 in WNW 2.9 mph 13 mph 55% 0 in 283 W/m2
15:59 60.3 °F 44.4 °F 29.8 in SW 4.9 mph 12 mph 56% 0 in 262 W/m2
16:04 60.1 °F 44.8 °F 29.8 in WNW 4.9 mph 13 mph 57% 0 in 171 W/m2
16:09 59.9 °F 45.1 °F 29.7 in NNW 2.9 mph 6 mph 58% 0 in 218 W/m2
16:14 60.3 °F 45 °F 29.7 in NE 4.9 mph 10 mph 57% 0 in 239 W/m2
16:19 61 °F 45.1 °F 29.7 in West 10.1 mph 11 mph 56% 0 in 216 W/m2
16:24 61.2 °F 44.8 °F 29.7 in WNW 0.9 mph 10 mph 55% 0 in 816 W/m2
16:29 61.3 °F 44.6 °F 29.7 in SW 4 mph 7 mph 54% 0 in 214 W/m2
16:34 61.2 °F 43.9 °F 29.7 in NNW 2 mph 17 mph 53% 0 in 260 W/m2
16:39 60.8 °F 44.1 °F 29.7 in West 4 mph 11 mph 54% 0 in 417 W/m2
16:44 60.8 °F 43.5 °F 29.7 in WSW 4 mph 17 mph 53% 0 in 218 W/m2
16:49 61.2 °F 44.4 °F 29.7 in WNW 0.9 mph 7 mph 54% 0 in 758 W/m2
16:54 61.9 °F 44.6 °F 29.7 in NW 8.9 mph 9 mph 53% 0 in 696 W/m2
16:59 62.4 °F 44.6 °F 29.7 in NW 8.1 mph 9 mph 52% 0 in 700 W/m2
17:04 62.2 °F 45 °F 29.7 in SSW 2 mph 8 mph 53% 0 in 638 W/m2
17:09 62.1 °F 44.2 °F 29.7 in NW 4.9 mph 11 mph 52% 0 in 169 W/m2
17:14 61.7 °F 43.9 °F 29.7 in NW 6.9 mph 8 mph 52% 0 in 649 W/m2
17:19 62.1 °F 43.7 °F 29.7 in WSW 2 mph 15 mph 51% 0 in 726 W/m2
17:24 62.6 °F 42.6 °F 29.7 in NNW 2 mph 10 mph 48% 0 in 638 W/m2
17:29 63 °F 43 °F 29.7 in West 2.9 mph 8 mph 48% 0 in 663 W/m2
17:34 62.6 °F 42.6 °F 29.7 in NW 4.9 mph 14 mph 48% 0 in 234 W/m2
17:39 62.6 °F 42.6 °F 29.7 in WSW 10.1 mph 19 mph 48% 0 in 613 W/m2
17:44 63 °F 43.5 °F 29.7 in WNW 4 mph 10 mph 49% 0 in 487 W/m2
17:49 63.1 °F 43.7 °F 29.7 in West 2.9 mph 16 mph 49% 0 in 570 W/m2
17:54 63.1 °F 43.7 °F 29.7 in NW 2.9 mph 13 mph 49% 0 in 608 W/m2
17:59 63 °F 43.5 °F 29.7 in West 4 mph 11 mph 49% 0 in 547 W/m2
18:04 62.8 °F 43.9 °F 29.7 in NW 2.9 mph 9 mph 50% 0 in 169 W/m2
18:09 62.4 °F 44.1 °F 29.7 in NE 2 mph 9 mph 51% 0 in 510 W/m2
18:14 62.8 °F 44.4 °F 29.7 in WSW 0.9 mph 7 mph 51% 0 in 471 W/m2
18:19 62.8 °F 44.4 °F 29.7 in North 4 mph 9 mph 51% 0 in 464 W/m2
18:24 62.6 °F 43.7 °F 29.7 in West 2.9 mph 13 mph 50% 0 in 441 W/m2
18:29 62.8 °F 45.3 °F 29.7 in WNW 4 mph 8 mph 53% 0 in 353 W/m2
18:34 62.8 °F 44.4 °F 29.7 in North 4 mph 12 mph 51% 0 in 397 W/m2
18:39 62.6 °F 44.8 °F 29.7 in NW 6 mph 7 mph 52% 0 in 360 W/m2
18:44 62.6 °F 44.8 °F 29.7 in NW 6 mph 10 mph 52% 0 in 338 W/m2
18:49 62.4 °F 44.6 °F 29.7 in NW 4.9 mph 11 mph 52% 0 in 258 W/m2
18:54 61.9 °F 44.1 °F 29.7 in NNW 2.9 mph 7 mph 52% 0 in 83 W/m2
18:59 61.3 °F 44.1 °F 29.7 in NNW 2 mph 10 mph 53% 0 in 116 W/m2
19:04 61.3 °F 44.6 °F 29.7 in WSW 11 mph 11 mph 54% 0 in 313 W/m2
19:09 61.3 °F 45 °F 29.7 in North 2.9 mph 5 mph 55% 0 in 243 W/m2
19:14 61.3 °F 45 °F 29.7 in East 2 mph 6 mph 55% 0 in 155 W/m2
19:19 61.2 °F 45.3 °F 29.7 in WSW 2 mph 10 mph 56% 0 in 121 W/m2
19:24 61 °F 45.7 °F 29.7 in SSW 6 mph 8 mph 57% 0 in 130 W/m2
19:29 60.8 °F 45.5 °F 29.7 in WNW 4 mph 6 mph 57% 0 in 100 W/m2
19:34 60.8 °F 45.5 °F 29.7 in WNW 4 mph 6 mph 57% 0 in 107 W/m2
19:39 61 °F 46 °F 29.7 in NNW 4 mph 8 mph 58% 0 in 178 W/m2
19:44 61 °F 45.7 °F 29.7 in WNW 0.9 mph 8 mph 57% 0 in 162 W/m2
19:49 61 °F 45.7 °F 29.7 in NNW 2.9 mph 9 mph 57% 0 in 183 W/m2
19:54 61 °F 45.7 °F 29.7 in NW 0.9 mph 4 mph 57% 0 in 88 W/m2
19:59 60.6 °F 46.2 °F 29.7 in NW 4 mph 9 mph 59% 0 in 49 W/m2
20:04 60.6 °F 46.6 °F 29.7 in NW 4 mph 5 mph 60% 0 in 127 W/m2
20:09 60.4 °F 46.4 °F 29.7 in SSE 0.9 mph 5 mph 60% 0 in 113 W/m2
20:14 60.4 °F 46.9 °F 29.7 in West 0.9 mph 4 mph 61% 0 in 121 W/m2
20:19 60.4 °F 47.3 °F 29.7 in NNW 0.9 mph 3 mph 62% 0 in 141 W/m2
20:24 60.4 °F 47.3 °F 29.7 in NW 2.9 mph 6 mph 62% 0 in 51 W/m2
20:29 59.5 °F 46.9 °F 29.7 in NW 2 mph 9 mph 63% 0 in 67 W/m2
20:34 59.4 °F 47.7 °F 29.7 in NW 6 mph 8 mph 65% 0 in 51 W/m2
20:39 58.6 °F 46.9 °F 29.6 in WNW 2.9 mph 5 mph 65% 0 in 16 W/m2
20:44 58.1 °F 46.8 °F 29.6 in WNW 4.9 mph 7 mph 66% 0 in 12 W/m2
20:49 57.7 °F 46.9 °F 29.6 in Calm   2 mph 67% 0 in 12 W/m2
20:55 57.6 °F 47.1 °F 29.6 in Calm   4 mph 68% 0 in 11 W/m2
21:00 57.4 °F 47.3 °F 29.6 in North 2 mph 5 mph 69% 0 in 9 W/m2
21:05 57 °F 46.9 °F 29.6 in NW 0.9 mph 3 mph 69% 0 in 7 W/m2
21:10 56.8 °F 47.1 °F 29.6 in Calm   2 mph 70% 0 in 7 W/m2
21:15 56.7 °F 47.3 °F 29.6 in NE 2.9 mph 4 mph 71% 0 in 5 W/m2
21:20 56.7 °F 47.3 °F 29.6 in NNE 2 mph 3 mph 71% 0 in 0 W/m2
21:25 56.5 °F 47.1 °F 29.6 in North 0.9 mph 4 mph 71% 0 in 0 W/m2
21:30 56.3 °F 47.5 °F 29.7 in NNE 0.9 mph 2 mph 72% 0 in 0 W/m2
21:35 56.1 °F 47.3 °F 29.7 in ENE 4 mph 4 mph 72% 0 in 0 W/m2
21:40 56.1 °F 47.7 °F 29.7 in NW 2.9 mph 4 mph 73% 0 in 0 W/m2
21:45 56.1 °F 47.7 °F 29.6 in WNW 0.9 mph 3 mph 73% 0 in 0 W/m2
21:50 55.9 °F 47.8 °F 29.7 in West 4 mph 6 mph 74% 0 in 0 W/m2
21:55 55.8 °F 47.7 °F 29.7 in NW 4 mph 13 mph 74% 0 in 0 W/m2
22:00 55.6 °F 47.1 °F 29.7 in North 4 mph 6 mph 73% 0 in 0 W/m2
22:05 55.2 °F 47.1 °F 29.7 in NNW 2.9 mph 13 mph 74% 0 in 0 W/m2
22:10 55 °F 46.9 °F 29.6 in NE 2.9 mph 3 mph 74% 0 in 0 W/m2
22:15 54.9 °F 46.8 °F 29.6 in NNE 2 mph 5 mph 74% 0 in 0 W/m2
22:20 54.7 °F 46.9 °F 29.7 in North 2.9 mph 3 mph 75% 0 in 0 W/m2
22:25 54.5 °F 46.8 °F 29.6 in West 2.9 mph 4 mph 75% 0 in 0 W/m2
22:30 54.3 °F 46.9 °F 29.6 in Calm   4 mph 76% 0 in 0 W/m2
22:35 54.3 °F 46.9 °F 29.7 in West 2.9 mph 4 mph 76% 0 in 0 W/m2
22:40 54.3 °F 47.3 °F 29.7 in NNE 0.9 mph 2 mph 77% 0.01 in 0 W/m2
22:45 54.1 °F 47.5 °F 29.7 in Calm   2 mph 78% 0.01 in 0 W/m2
22:50 53.8 °F 47.5 °F 29.7 in NE 2 mph 3 mph 79% 0.01 in 0 W/m2
22:55 53.4 °F 47.7 °F 29.7 in WNW 2.9 mph 6 mph 81% 0.01 in 0 W/m2
23:00 53.2 °F 47.8 °F 29.7 in WNW 8.1 mph 10 mph 82% 0.01 in 0 W/m2
23:05 53.1 °F 47.7 °F 29.7 in North 8.1 mph 9 mph 82% 0.02 in 0 W/m2
23:10 52.7 °F 48 °F 29.7 in NNW 6 mph 9 mph 84% 0.07 in 0 W/m2
23:15 52.2 °F 47.8 °F 29.7 in WNW 2 mph 8 mph 85% 0.1 in 0 W/m2
23:20 51.4 °F 47.5 °F 29.7 in NW 2.9 mph 7 mph 86% 0.11 in 0 W/m2
23:25 51.3 °F 47.5 °F 29.7 in West 4 mph 8 mph 87% 0.11 in 0 W/m2
23:30 50.9 °F 47.5 °F 29.7 in West 2 mph 3 mph 88% 0.11 in 0 W/m2
23:35 50.5 °F 47.1 °F 29.7 in West 2.9 mph 8 mph 88% 0.11 in 0 W/m2
23:40 50.4 °F 47.3 °F 29.7 in WSW 2 mph 4 mph 89% 0.1 in 0 W/m2
23:45 50.4 °F 47.3 °F 29.7 in SE 2 mph 2 mph 89% 0.1 in 0 W/m2
23:50 50.2 °F 47.3 °F 29.7 in Calm   2 mph 90% 0.1 in 0 W/m2
23:55 50.2 °F 47.3 °F 29.7 in Calm   4 mph 90% 0.1 in 0 W/m2
Juneau County Weather
Compliments of Weather Underground - 2 mb